#timestamp,LO_Frequency,Hit,StdDev 
1566399615.2,286046999.2,N
1566399635.0,286046998.9,N
1566399635.9,286046998.9,N
1566399655.8,286046999.1,N
1566399675.6,286046997.0,Y
1566399695.5,286046999.4,P
1566399715.3,286046996.9,P
1566399735.1,286046997.3,N
1566399755.9,286046998.0,N
1566399775.7,286046998.0,N
1566399795.5,286046997.8,N
1566399815.4,286046997.5,N
1566399835.2,286046997.0,Y
1566399855.1,286046998.5,P
1566399856.0,286046998.5,P
1566399875.8,286046998.3,P
1566399895.6,286047000.9,Y
1566399915.5,286047000.2,P
1566399935.3,286047000.4,N
1566399955.2,286047000.2,N
1566399975.9,286047000.0,N
1566399995.7,286047000.7,N
1566400015.6,286046999.9,N
1566400035.4,286047002.3,Y
1566400055.3,286047000.5,P
1566400075.1,286047000.3,N
1566400076.0,286047000.3,N
1566400125.9,286047000.0,E
1566400135.8,286047000.4,N
1566400155.6,286046999.9,P
1566400175.5,286046999.9,N
1566400195.3,286046999.8,N
1566400215.1,286046999.7,N
1566400235.9,286047000.5,N
1566400255.7,286047000.4,N
1566400275.6,286047001.1,Y
1566400295.4,286047000.7,P
1566400315.2,286047000.4,N
1566400335.1,286047000.3,N
1566400336.0,286047000.3,N
1566400355.8,286047000.0,N
1566400375.6,286046999.9,N
1566400395.5,286047002.4,Y
1566400415.3,286047000.0,P
1566400435.2,286047000.4,P
1566400455.0,286047000.4,N
1566400455.9,286047000.4,N
1566400475.8,286047002.0,Y
1566400495.6,286047002.8,P
1566400515.4,286047002.7,N
1566400535.3,286047002.0,N
1566400555.1,286047001.5,N
1566400575.8,286047004.1,Y
1566400595.7,286047002.7,P
1566400615.5,286047002.8,P
1566400635.4,286047002.7,P
1566400655.2,286047001.6,Y
1566400675.0,286046998.6,P
1566400675.9,286046998.6,N
1566400695.8,286046998.9,N
1566400715.6,286046996.6,N
1566400735.5,286046999.2,N
1566400755.3,286046999.5,N
1566400775.1,286046998.8,N
1566400795.9,286046998.7,N
1566400815.7,286046998.1,N
1566400835.6,286046998.4,N
1566400855.4,286046999.2,N
1566400875.2,286046999.6,N
1566400895.1,286046998.9,N
1566400896.0,286046998.9,N
1566400915.8,286046996.5,Y
1566400935.7,286046998.8,P
1566400955.5,286046998.7,P
1566400975.4,286046998.3,P
1566400995.2,286046998.2,Y
1566401015.0,286047002.7,P
1566401015.9,286047002.7,N
1566401035.8,286047000.8,N
1566401055.6,286047000.8,N
1566401075.4,286047001.1,N
1566401095.3,286047000.4,N
1566401115.1,286047000.6,N
1566401135.9,286046998.8,N
1566401155.7,286047001.0,N
1566401175.5,286047000.2,N
1566401195.4,286047000.7,N
1566401215.2,286047000.2,N
1566401235.0,286047002.7,N
1566401236.0,286047002.7,N
1566401255.8,286047000.2,N
1566401275.6,286046999.8,N
1566401295.5,286047002.4,N
1566401315.3,286047000.8,N
1566401335.2,286046998.2,N
1566401355.9,286047000.9,N
1566401375.7,286046999.3,N
1566401395.6,286047001.2,N
1566401415.4,286046999.9,N
1566401435.3,286047002.7,N
1566401455.1,286047002.6,N
1566401456.0,286047002.6,N
1566401475.8,286047002.6,N
1566401495.7,286047002.3,N
1566401515.5,286047002.8,N
1566401535.3,286047000.9,N
1566401555.2,286046999.9,N
1566401575.0,286046998.1,N
1566401575.9,286046998.1,N
1566401595.8,286046998.3,N
1566401615.6,286047001.0,N
1566401635.4,286046998.6,N
1566401655.3,286047001.2,N
1566401675.1,286047000.9,N
1566401695.9,286047002.1,N
1566401715.7,286047002.5,N
1566401735.5,286046999.9,N
1566401755.4,286047002.5,N
1566401775.2,286047002.0,N
1566401795.0,286047002.3,N
1566401796.0,286047002.3,N
1566401815.8,286047002.2,N
1566401835.6,286046999.8,N
1566401855.5,286047002.7,N
1566401875.3,286047002.7,N
1566401895.1,286047000.5,N
1566401915.9,286047000.0,N
1566401935.7,286047002.7,N
1566401955.6,286047002.0,N
1566401975.4,286047002.5,N
1566401995.2,286047001.4,N
1566402015.1,286047002.1,N
1566402016.0,286047002.1,N
1566402035.8,286047002.2,N
1566402055.7,286046999.7,N
1566402075.5,286047000.2,N
1566402095.3,286046999.7,N
1566402115.2,286046999.7,N
1566402135.0,286046999.9,N
1566402135.9,286046999.9,N
1566402155.8,286047002.4,N
1566402175.6,286047002.3,N
1566402195.4,286047000.0,N
1566402215.3,286047002.7,N
1566402235.1,286047002.6,N
1566402255.9,286047002.0,N
1566402275.7,286047002.5,N
1566402295.5,286047002.7,N
1566402315.4,286047001.5,N
1566402335.2,286047002.1,N
1566402355.0,286047001.7,N
1566402355.9,286047001.7,N
1566402375.8,286047001.6,N
1566402395.6,286047001.8,N
1566402415.5,286047001.8,N
1566402435.3,286047002.1,N
1566402455.1,286047001.9,N
1566402475.9,286047002.1,N
1566402495.7,286047004.1,Y
1566402515.6,286047002.4,P
1566402535.4,286047002.2,P
1566402555.2,286047002.3,P
1566402575.1,286047001.8,Y
1566402576.0,286047001.8,P
1566402595.8,286046998.3,P
1566402615.7,286046998.8,N
1566402635.5,286046999.6,N
1566402655.3,286046999.1,N
1566402675.2,286046999.2,N
1566402695.0,286046998.9,N
1566402695.9,286046998.9,N
1566402715.7,286046999.6,N
1566402735.6,286046996.6,N
1566402755.4,286046996.6,N
1566402775.3,286046996.6,N
1566402795.1,286046999.3,N
1566402796.0,286046999.3,N
1566402815.8,286046999.0,N
1566402835.7,286046999.4,N
1566402855.5,286046996.9,N
1566402875.4,286046999.6,N
1566402895.2,286046999.3,N
1566402915.0,286046998.4,N
1566402915.9,286046998.4,N
1566402935.8,286046996.5,N
1566402955.6,286046997.4,N
1566402975.5,286046997.0,N
1566402995.3,286046997.5,N
1566403015.1,286046995.5,Y
1566403035.9,286046995.3,P
1566403055.7,286046995.1,N
1566403075.6,286046995.1,P
1566403095.4,286046995.1,Y
1566403115.2,286047001.1,P
1566403135.1,286047001.1,N
1566403136.0,286047001.1,N
1566403155.8,286046999.0,N
1566403175.7,286046999.5,N
1566403195.5,286046996.9,N
